TimeCDT,TemperatureF,Dew PointF,Humidity,Sea Level PressureIn,VisibilityMPH,Wind Direction,Wind SpeedMPH,Gust SpeedMPH,PrecipitationIn,Events,Conditions,WindDirDegrees,DateUTC
12:15 AM,29.3,24.1,81,30.31,10.0,Calm,Calm,-,N/A,,Clear,0,2013-03-27 05:15:00
12:35 AM,29.1,26.4,90,30.31,10.0,Calm,Calm,-,N/A,,Clear,0,2013-03-27 05:35:00
12:55 AM,28.6,26.2,91,30.31,10.0,Calm,Calm,-,N/A,,Clear,0,2013-03-27 05:55:00
1:15 AM,28.6,25.9,90,30.32,10.0,Calm,Calm,-,N/A,,Clear,0,2013-03-27 06:15:00
1:35 AM,27.9,25.5,91,30.32,10.0,Calm,Calm,-,N/A,,Clear,0,2013-03-27 06:35:00
1:55 AM,28.0,25.7,91,30.32,10.0,Calm,Calm,-,N/A,,Clear,0,2013-03-27 06:55:00
2:15 AM,28.2,25.5,90,30.31,10.0,Calm,Calm,-,N/A,,Clear,0,2013-03-27 07:15:00
2:35 AM,28.0,24.3,86,30.31,10.0,South,3.5,-,N/A,,Clear,180,2013-03-27 07:35:00
2:55 AM,28.2,24.6,86,30.30,10.0,South,3.5,-,N/A,,Clear,170,2013-03-27 07:55:00
3:15 AM,28.9,24.1,82,30.30,10.0,Calm,Calm,-,N/A,,Clear,0,2013-03-27 08:15:00
3:55 AM,28.2,25.2,88,30.30,10.0,Calm,Calm,-,N/A,,Clear,0,2013-03-27 08:55:00
4:15 AM,28.4,24.8,86,30.30,10.0,Calm,Calm,-,N/A,,Clear,0,2013-03-27 09:15:00
4:35 AM,28.9,24.6,84,30.30,10.0,Calm,Calm,-,N/A,,Clear,0,2013-03-27 09:35:00
4:55 AM,28.2,25.2,88,30.30,10.0,Calm,Calm,-,N/A,,Clear,0,2013-03-27 09:55:00
5:15 AM,27.7,24.6,88,30.31,10.0,Calm,Calm,-,N/A,,Clear,0,2013-03-27 10:15:00
5:35 AM,27.5,24.8,90,30.31,10.0,Calm,Calm,-,N/A,,Clear,0,2013-03-27 10:35:00
5:55 AM,27.3,24.8,90,30.30,10.0,Calm,Calm,-,N/A,,Scattered Clouds,0,2013-03-27 10:55:00
6:15 AM,26.6,23.7,89,30.31,10.0,Calm,Calm,-,N/A,,Clear,0,2013-03-27 11:15:00
6:35 AM,26.2,23.0,88,30.31,10.0,Calm,Calm,-,N/A,,Clear,0,2013-03-27 11:35:00
6:55 AM,26.2,23.7,90,30.31,10.0,ENE,4.6,-,N/A,,Clear,70,2013-03-27 11:55:00
7:15 AM,26.1,23.4,90,30.31,10.0,ENE,3.5,-,N/A,,Clear,70,2013-03-27 12:15:00
7:35 AM,26.2,23.5,90,30.32,10.0,East,3.5,-,N/A,,Clear,90,2013-03-27 12:35:00
7:55 AM,27.0,24.3,90,30.32,10.0,Calm,Calm,-,N/A,,Clear,0,2013-03-27 12:55:00
8:15 AM,27.5,24.8,90,30.33,10.0,Calm,Calm,-,N/A,,Clear,0,2013-03-27 13:15:00
8:35 AM,29.3,25.9,87,30.33,10.0,Calm,Calm,-,N/A,,Clear,0,2013-03-27 13:35:00
8:55 AM,30.4,25.9,83,30.33,10.0,Calm,Calm,-,N/A,,Clear,0,2013-03-27 13:55:00
9:15 AM,32.0,26.1,79,30.33,10.0,Calm,Calm,-,N/A,,Clear,0,2013-03-27 14:15:00
9:35 AM,32.9,25.9,75,30.33,10.0,SE,3.5,-,N/A,,Clear,140,2013-03-27 14:35:00
9:55 AM,33.8,25.7,72,30.33,10.0,Calm,Calm,-,N/A,,Clear,0,2013-03-27 14:55:00
10:15 AM,34.7,25.5,69,30.33,10.0,SSE,4.6,-,N/A,,Clear,150,2013-03-27 15:15:00
10:35 AM,35.4,25.9,68,30.34,10.0,SE,3.5,-,N/A,,Scattered Clouds,130,2013-03-27 15:35:00
10:55 AM,35.4,24.3,64,30.34,10.0,SE,4.6,-,N/A,,Scattered Clouds,140,2013-03-27 15:55:00
11:15 AM,35.8,24.8,64,30.34,10.0,SSE,4.6,-,N/A,,Clear,150,2013-03-27 16:15:00
11:35 AM,37.0,24.1,59,30.34,10.0,South,4.6,-,N/A,,Clear,170,2013-03-27 16:35:00
11:55 AM,37.4,25.0,61,30.34,10.0,SE,5.8,-,N/A,,Scattered Clouds,140,2013-03-27 16:55:00
12:15 PM,37.9,24.8,59,30.34,10.0,ESE,5.8,-,N/A,,Scattered Clouds,120,2013-03-27 17:15:00
12:35 PM,37.9,23.4,56,30.34,10.0,Calm,Calm,-,N/A,,Scattered Clouds,0,2013-03-27 17:35:00
12:55 PM,38.7,24.3,56,30.34,10.0,SSE,3.5,-,N/A,,Scattered Clouds,160,2013-03-27 17:55:00
1:15 PM,39.6,24.8,56,30.33,10.0,SSE,4.6,-,N/A,,Scattered Clouds,150,2013-03-27 18:15:00
1:35 PM,39.7,25.2,56,30.33,10.0,SSE,4.6,-,N/A,,Mostly Cloudy,160,2013-03-27 18:35:00
1:55 PM,39.4,24.4,55,30.33,10.0,ESE,4.6,-,N/A,,Scattered Clouds,120,2013-03-27 18:55:00
2:15 PM,40.8,25.9,55,30.32,10.0,ESE,3.5,-,N/A,,Scattered Clouds,120,2013-03-27 19:15:00
2:35 PM,41.0,26.6,57,30.31,10.0,SE,6.9,-,N/A,,Mostly Cloudy,140,2013-03-27 19:35:00
2:55 PM,40.8,25.5,55,30.30,10.0,Calm,Calm,-,N/A,,Scattered Clouds,0,2013-03-27 19:55:00
3:15 PM,41.0,25.7,55,30.30,10.0,SSE,5.8,-,N/A,,Clear,150,2013-03-27 20:15:00
3:35 PM,41.5,26.2,55,30.29,10.0,ESE,4.6,-,N/A,,Clear,110,2013-03-27 20:35:00
3:55 PM,41.9,26.4,54,30.29,10.0,East,3.5,-,N/A,,Clear,90,2013-03-27 20:55:00
4:15 PM,41.7,26.4,55,30.28,10.0,ESE,3.5,-,N/A,,Clear,110,2013-03-27 21:15:00
4:35 PM,41.9,27.3,56,30.27,10.0,East,5.8,-,N/A,,Clear,90,2013-03-27 21:35:00
4:55 PM,42.1,26.8,55,30.27,10.0,Calm,Calm,-,N/A,,Clear,0,2013-03-27 21:55:00
5:15 PM,42.1,26.6,54,30.27,10.0,East,4.6,-,N/A,,Clear,80,2013-03-27 22:15:00
5:35 PM,41.9,28.0,58,30.27,10.0,East,8.1,-,N/A,,Clear,90,2013-03-27 22:35:00
5:55 PM,40.6,27.9,60,30.28,10.0,East,6.9,-,N/A,,Clear,90,2013-03-27 22:55:00
6:15 PM,40.3,27.9,61,30.28,10.0,East,6.9,-,N/A,,Clear,90,2013-03-27 23:15:00
6:35 PM,39.6,28.0,63,30.28,10.0,East,6.9,-,N/A,,Clear,90,2013-03-27 23:35:00
6:55 PM,38.5,28.9,69,30.29,10.0,East,4.6,-,N/A,,Clear,90,2013-03-27 23:55:00
7:15 PM,37.4,27.7,68,30.29,10.0,East,5.8,-,N/A,,Clear,90,2013-03-28 00:15:00
7:35 PM,35.6,27.3,72,30.29,10.0,East,5.8,-,N/A,,Clear,90,2013-03-28 00:35:00
7:55 PM,34.7,27.1,74,30.29,10.0,ENE,5.8,-,N/A,,Clear,70,2013-03-28 00:55:00
8:15 PM,34.2,26.8,74,30.29,10.0,ENE,5.8,-,N/A,,Clear,70,2013-03-28 01:15:00
8:35 PM,33.8,26.8,75,30.29,10.0,ENE,4.6,-,N/A,,Clear,70,2013-03-28 01:35:00
8:55 PM,33.4,26.8,77,30.30,10.0,ENE,3.5,-,N/A,,Clear,70,2013-03-28 01:55:00
9:15 PM,32.7,27.5,81,30.30,10.0,East,3.5,-,N/A,,Clear,80,2013-03-28 02:15:00
9:35 PM,32.2,26.6,80,30.31,10.0,Calm,Calm,-,N/A,,Clear,0,2013-03-28 02:35:00
9:55 PM,32.2,26.6,80,30.31,10.0,Calm,Calm,-,N/A,,Clear,0,2013-03-28 02:55:00
10:15 PM,32.0,26.2,79,30.32,10.0,East,4.6,-,N/A,,Clear,80,2013-03-28 03:15:00
10:35 PM,32.0,25.5,77,30.32,10.0,East,4.6,-,N/A,,Clear,80,2013-03-28 03:35:00
10:55 PM,31.8,26.2,80,30.32,10.0,ENE,3.5,-,N/A,,Clear,70,2013-03-28 03:55:00
11:15 PM,32.0,25.9,78,30.32,10.0,Calm,Calm,-,N/A,,Clear,0,2013-03-28 04:15:00
11:35 PM,30.9,25.7,81,30.31,10.0,NE,5.8,-,N/A,,Clear,40,2013-03-28 04:35:00
11:55 PM,30.9,25.7,81,30.32,10.0,NE,5.8,-,N/A,,Clear,50,2013-03-28 04:55:00